| time (UTC) | temp F | wind direction | speed MPH | gust MPH | rain 1hr in | rain 24hr in | rain mn in | humidity % | barometer mb |
| 20260503032641 | 61 | 67 | 0.0 | 0.0 | 0.00 | 0.03 | 0.01 | 73 | 1020.9 |
| 20260503031643 | 61 | 67 | 0.0 | 0.0 | 0.00 | 0.03 | 0.01 | 73 | 1020.8 |
| 20260503025644 | 62 | 67 | 0.0 | 0.0 | 0.00 | 0.04 | 0.01 | 69 | 1020.9 |
| 20260503024642 | 63 | 67 | 0.0 | 0.0 | 0.00 | 0.05 | 0.01 | 68 | 1020.8 |
| 20260503023643 | 63 | 67 | 0.0 | 0.0 | 0.00 | 0.06 | 0.01 | 66 | 1020.8 |
| 20260503022643 | 64 | 67 | 0.0 | 0.0 | 0.00 | 0.06 | 0.01 | 62 | 1020.5 |
| 20260503021644 | 65 | 67 | 0.0 | 0.0 | 0.00 | 0.07 | 0.01 | 62 | 1020.5 |
| 20260503020642 | 66 | 67 | 0.0 | 0.0 | 0.00 | 0.07 | 0.01 | 60 | 1020.6 |
| 20260503015642 | 66 | 67 | 0.0 | 0.0 | 0.00 | 0.08 | 0.01 | 58 | 1020.4 |
| 20260503014642 | 67 | 67 | 0.0 | 0.0 | 0.00 | 0.09 | 0.01 | 55 | 1020.2 |
| 20260503013641 | 68 | 67 | 0.0 | 0.0 | 0.00 | 0.10 | 0.01 | 54 | 1020.0 |
| 20260503013541 | 68 | 67 | 0.0 | 0.0 | 0.00 | 0.10 | 0.01 | 54 | 1020.0 |
| 20260503012542 | 69 | 67 | 0.0 | 0.0 | 0.00 | 0.11 | 0.01 | 52 | 1019.9 |
| 20260503010541 | 70 | 67 | 0.0 | 0.0 | 0.00 | 0.13 | 0.01 | 47 | 1019.6 |
| 20260503005543 | 71 | 360 | 0.0 | 0.0 | 0.00 | 0.14 | 0.01 | 45 | 1019.4 |
| 20260503004544 | 72 | 112 | 0.0 | 0.0 | 0.00 | 0.15 | 0.01 | 44 | 1019.3 |
| 20260503003642 | 72 | 53 | 0.0 | 2.0 | 0.00 | 0.19 | 0.01 | 44 | 1019.2 |
| 20260503002645 | 72 | 67 | 0.0 | 0.0 | 0.00 | 0.26 | 0.01 | 43 | 1019.2 |
| 20260503001742 | 73 | 31 | 0.0 | 1.0 | 0.00 | 0.34 | 0.01 | 42 | 1019.2 |
| 20260503000742 | 73 | 97 | 0.0 | 0.0 | 0.00 | 0.46 | 0.01 | 41 | 1019.0 |
| 20260503000643 | 73 | 112 | 0.0 | 0.0 | 0.00 | 0.47 | 0.01 | 41 | 1019.0 |
| 20260502234741 | 74 | 38 | 0.0 | 3.0 | 0.00 | 0.48 | 0.01 | 40 | 1018.9 |
| 20260502232743 | 75 | 56 | 1.0 | 4.0 | 0.00 | 0.51 | 0.01 | 40 | 1018.8 |
| 20260502230643 | 75 | 58 | 0.0 | 3.0 | 0.00 | 0.52 | 0.01 | 38 | 1018.7 |
| 20260502225644 | 75 | 166 | 0.0 | 2.0 | 0.00 | 0.53 | 0.01 | 38 | 1018.5 |
| 20260502224643 | 75 | 70 | 0.0 | 2.0 | 0.00 | 0.53 | 0.01 | 38 | 1018.5 |
| 20260502223641 | 75 | 113 | 0.0 | 2.0 | 0.00 | 0.53 | 0.01 | 39 | 1018.6 |
| 20260502222643 | 75 | 70 | 0.0 | 0.0 | 0.00 | 0.53 | 0.01 | 39 | 1018.7 |
| 20260502221644 | 76 | 358 | 0.0 | 2.0 | 0.00 | 0.53 | 0.01 | 37 | 1018.5 |
| 20260502220641 | 76 | 76 | 0.0 | 3.0 | 0.00 | 0.53 | 0.01 | 37 | 1018.7 |
| 20260502215643 | 76 | 37 | 1.0 | 4.0 | 0.00 | 0.55 | 0.01 | 37 | 1018.8 |
| 20260502214643 | 76 | 123 | 0.0 | 2.0 | 0.00 | 0.55 | 0.01 | 38 | 1018.8 |
| 20260502213741 | 76 | 93 | 0.0 | 3.0 | 0.00 | 0.57 | 0.01 | 38 | 1019.0 |
| 20260502212743 | 77 | 30 | 3.0 | 6.0 | 0.00 | 0.62 | 0.01 | 37 | 1018.8 |
| 20260502211742 | 77 | 191 | 0.0 | 0.0 | 0.00 | 0.67 | 0.01 | 37 | 1018.8 |
| 20260502210742 | 77 | 50 | 0.0 | 0.0 | 0.00 | 0.70 | 0.01 | 36 | 1018.8 |
| 20260502205741 | 77 | 71 | 0.0 | 3.0 | 0.00 | 0.83 | 0.01 | 35 | 1018.8 |
| 20260502204743 | 77 | 45 | 1.0 | 5.0 | 0.00 | 0.90 | 0.01 | 35 | 1019.0 |
| 20260502202941 | 77 | 38 | 1.0 | 3.0 | 0.00 | 1.03 | 0.01 | 35 | 1019.2 |
| 20260502201943 | 76 | 309 | 0.0 | 1.0 | 0.00 | 1.15 | 0.01 | 38 | 1019.4 |
| 20260502201041 | 76 | 225 | 0.0 | 0.0 | 0.00 | 1.43 | 0.01 | 37 | 1019.5 |
| 20260502200042 | 76 | 64 | 1.0 | 5.0 | 0.00 | 1.55 | 0.01 | 37 | 1019.3 |
| 20260502195141 | 77 | 75 | 0.0 | 4.0 | 0.00 | 1.64 | 0.01 | 37 | 1019.4 |
| 20260502195043 | 77 | 29 | 2.0 | 5.0 | 0.00 | 1.68 | 0.01 | 37 | 1019.5 |
| 20260502194044 | 76 | 111 | 0.0 | 2.0 | 0.00 | 2.01 | 0.01 | 38 | 1019.8 |
| 20260502192241 | 75 | 67 | 0.0 | 0.0 | 0.00 | 2.11 | 0.01 | 38 | 1020.2 |
| 20260502192142 | 75 | 67 | 1.0 | 5.0 | 0.00 | 2.12 | 0.01 | 39 | 1020.4 |
| 20260502191142 | 75 | 66 | 0.0 | 2.0 | 0.00 | 2.15 | 0.01 | 43 | 1020.1 |
| 20260502190143 | 74 | 70 | 1.0 | 8.0 | 0.00 | 2.16 | 0.01 | 42 | 1020.4 |
| 20260502185142 | 75 | 61 | 1.0 | 4.0 | 0.00 | 2.16 | 0.01 | 44 | 1020.4 |
| 20260502184141 | 74 | 11 | 1.0 | 3.0 | 0.00 | 2.17 | 0.01 | 43 | 1020.4 |
| 20260502183141 | 74 | 39 | 1.0 | 5.0 | 0.00 | 2.18 | 0.01 | 44 | 1020.4 |
| 20260502182241 | 74 | 72 | 0.0 | 5.0 | 0.00 | 2.18 | 0.01 | 44 | 1020.8 |
| 20260502181242 | 74 | 75 | 0.0 | 3.0 | 0.00 | 2.18 | 0.01 | 43 | 1020.8 |
| 20260502180341 | 74 | 42 | 2.0 | 7.0 | 0.00 | 2.18 | 0.01 | 44 | 1021.0 |
| 20260502170444 | 71 | 64 | 0.0 | 2.0 | 0.00 | 2.24 | 0.01 | 51 | 1021.0 |
| 20260502164343 | 69 | 58 | 1.0 | 4.0 | 0.00 | 2.86 | 0.01 | 52 | 1021.1 |
| 20260502163343 | 69 | 77 | 1.0 | 5.0 | 0.00 | 2.86 | 0.01 | 56 | 1021.1 |
| 20260502162343 | 69 | 44 | 0.0 | 2.0 | 0.00 | 2.86 | 0.01 | 60 | 1021.2 |
| 20260502160343 | 67 | 75 | 0.0 | 0.0 | 0.00 | 2.88 | 0.01 | 64 | 1021.0 |
| 20260502151443 | 64 | 42 | 0.0 | 1.0 | 0.00 | 2.93 | 0.01 | 71 | 1021.0 |
| 20260502150441 | 63 | 90 | 0.0 | 2.0 | 0.00 | 2.94 | 0.01 | 72 | 1021.0 |
| 20260502122942 | 55 | 41 | 1.0 | 4.0 | 0.00 | 3.02 | 0.01 | 91 | 1019.1 |
| 20260502121944 | 54 | 35 | 0.0 | 2.0 | 0.00 | 3.04 | 0.01 | 91 | 1019.0 |
| 20260502114043 | 54 | 53 | 0.0 | 2.0 | 0.00 | 3.04 | 0.01 | 92 | 1018.6 |
| 20260502113042 | 54 | 63 | 0.0 | 1.0 | 0.00 | 3.04 | 0.01 | 91 | 1018.5 |
| 20260502112942 | 54 | 35 | 0.0 | 1.0 | 0.00 | 3.04 | 0.01 | 91 | 1018.5 |
| 20260502112042 | 54 | 39 | 0.0 | 0.0 | 0.00 | 3.04 | 0.01 | 91 | 1018.6 |
| 20260502110141 | 54 | 122 | 0.0 | 1.0 | 0.00 | 3.04 | 0.01 | 90 | 1018.4 |
| 20260502105241 | 54 | 90 | 0.0 | 0.0 | 0.00 | 3.04 | 0.01 | 88 | 1018.2 |
| 20260502104243 | 54 | 95 | 0.0 | 0.0 | 0.00 | 3.04 | 0.01 | 87 | 1017.8 |
| 20260502103241 | 54 | 343 | 0.0 | 1.0 | 0.00 | 3.05 | 0.01 | 86 | 1017.6 |
| 20260502102340 | 54 | 313 | 0.0 | 0.0 | 0.00 | 3.05 | 0.01 | 86 | 1017.6 |
| 20260502101344 | 54 | 44 | 0.0 | 1.0 | 0.00 | 3.05 | 0.01 | 86 | 1017.4 |
| 20260502090641 | 55 | 130 | 0.0 | 2.0 | 0.00 | 3.05 | 0.01 | 87 | 1016.5 |
| 20260502065944 | 57 | 76 | 0.0 | 2.0 | 0.00 | 3.05 | 0.01 | 92 | 1016.4 |
| 20260502065842 | 57 | 68 | 0.0 | 3.0 | 0.00 | 3.05 | 0.01 | 92 | 1016.4 |
| 20260502064843 | 57 | 115 | 0.0 | 0.0 | 0.01 | 3.05 | 0.01 | 93 | 1016.2 |
| 20260502063844 | 57 | 79 | 0.0 | 2.0 | 0.01 | 3.05 | 0.01 | 93 | 1016.3 |
| 20260502062843 | 56 | 117 | 0.0 | 2.0 | 0.01 | 3.05 | 0.01 | 94 | 1016.1 |
| 20260502060844 | 56 | 30 | 0.0 | 2.0 | 0.01 | 3.21 | 0.01 | 93 | 1016.0 |
| 20260502055843 | 56 | 68 | 0.0 | 5.0 | 0.01 | 3.29 | 0.01 | 94 | 1016.2 |
| 20260502054841 | 56 | 48 | 1.0 | 4.0 | 0.00 | 3.33 | 0.00 | 94 | 1016.2 |
| 20260502053842 | 56 | 71 | 1.0 | 3.0 | 0.00 | 3.66 | 0.00 | 95 | 1016.4 |
| 20260502052842 | 56 | 64 | 0.0 | 2.0 | 0.00 | 3.97 | 0.00 | 95 | 1016.5 |
| 20260502051843 | 56 | 59 | 1.0 | 5.0 | 0.00 | 3.98 | 0.00 | 94 | 1016.4 |
| 20260502050841 | 56 | 55 | 0.0 | 1.0 | 0.00 | 3.98 | 0.00 | 95 | 1016.4 |
| 20260502045929 | 56 | 45 | 0.0 | 0.0 | 0.00 | 3.98 | 3.98 | 96 | 1016.4 |
| 20260502043931 | 56 | 54 | 1.0 | 4.0 | 0.02 | 3.98 | 3.98 | 96 | 1016.5 |
| 20260502042930 | 56 | 62 | 0.0 | 3.0 | 0.02 | 3.98 | 3.98 | 95 | 1016.4 |
| 20260502040930 | 56 | 81 | 1.0 | 7.0 | 0.02 | 3.98 | 3.98 | 95 | 1016.3 |
| 20260502035931 | 56 | 117 | 0.0 | 2.0 | 0.03 | 3.98 | 3.98 | 95 | 1016.0 |
| 20260502034930 | 56 | 105 | 0.0 | 3.0 | 0.02 | 3.96 | 3.96 | 96 | 1015.5 |
| 20260502033928 | 57 | 328 | 0.0 | 0.0 | 0.02 | 3.96 | 3.96 | 95 | 1015.8 |
| 20260502032930 | 57 | 166 | 1.0 | 7.0 | 0.03 | 3.96 | 3.96 | 97 | 1015.1 |